This demonstration page uses our WeatherBlox Daily Observations layout. Learn more.

Hourly Observations for July 11, 2020

Temp ( °F °C ) Dew Point ( °F °C ) Humidity (%) Winds ( mph kmh ) Pressure ( in mb ) Visibility ( mi km ) Precip ( " mm )
12:15 am 00:15 Clear 73 23 66 18.8 77 77 S 6 9 29.86 1011 10 16.0934 0 0
12:35 am 00:35 Clear 72 22.1 66 19 83 83 NNE 23 37 29.93 1014 10 16.0934 0 0
12:55 am 00:55 Mostly Cloudy 71 21.8 63 17.3 76 76 ENE 28 44 29.95 1014 10 16.0934 0 0
1:15 am 01:15 Mostly Cloudy 72 22 63 17.3 75 75 ENE 16 26 29.95 1014 10 16.0934 0 0
1:35 am 01:35 Clear 67 19.6 62 16.7 83 83 E 15 24 29.98 1015 10 16.0934 0 0
1:55 am 01:55 Clear 66 19.1 62 16.6 86 86 E 12 19 29.99 1016 10 16.0934 0 0
2:15 am 02:15 Partly Cloudy 66 19.1 62 16.6 86 86 E 12 19 30.01 1016 10 16.0934 0 0
2:35 am 02:35 Mostly Cloudy 67 19.3 62 16.5 84 84 E 13 20 30.03 1017 10 16.0934 0 0
2:55 am 02:55 Cloudy 67 19.5 62 16.4 82 82 ENE 14 22 30.05 1017 10 16.0934 0 0
3:15 am 03:15 Cloudy 67 19.3 62 16.5 84 84 E 13 20 30.04 1017 10 16.0934 0 0
3:35 am 03:35 Cloudy 66 19 62 16.6 86 86 E 10 17 30.03 1017 10 16.0934 0 0
3:55 am 03:55 Cloudy 66 18.8 62 16.7 88 88 ESE 8 13 30.01 1016 10 16.0934 0 0
4:15 am 04:15 Mostly Cloudy 65 18.6 62 16.6 88 88 ESE 14 22 30 1016 10 16.0934 0 0
4:35 am 04:35 Partly Cloudy 65 18.4 62 16.8 90 90 ESE 10 17 29.98 1015 10 16.0934 0 0
4:55 am 04:55 Clear 65 18.3 62 16.6 90 90 ESE 7 11 29.99 1015 10 16.0934 0 0
5:15 am 05:15 Clear 65 18.2 61 16.2 88 88 SE 9 15 29.99 1015 10 16.0934 0 0
5:35 am 05:35 Clear 65 18.1 61 16 88 88 SE 6 9 29.99 1016 10 16.0934 0 0
5:55 am 05:55 Clear 64 17.8 61 16 89 89 SSE 6 9 30 1016 10 16.0934 0 0
6:15 am 06:15 Clear 64 18 61 15.9 88 88 SSE 5 7 30 1016 10 16.0934 0 0
6:35 am 06:35 Sunny 64 17.6 61 16 90 90 SSW 3 6 30.01 1016 10 16.0934 0 0
6:55 am 06:55 Sunny 63 17.3 61 16.1 93 93 SW 5 7 30.02 1016 10 16.0934 0 0
7:15 am 07:15 Sunny 64 17.9 61 16.2 90 90 SW 3 6 30.01 1016 10 16.0934 0 0
7:35 am 07:35 Sunny 65 18.6 62 16.5 88 88 Calm 30.01 1016 10 16.0934 0 0
7:55 am 07:55 Sunny 67 19.4 62 16.4 83 83 Calm 30.02 1016 10 16.0934 0 0
8:15 am 08:15 Mostly Cloudy 68 20.1 62 16.9 82 82 NW 8 13 30.02 1017 10 16.0934 0 0
8:35 am 08:35 Cloudy 68 20.1 63 17.2 83 83 NNW 10 17 30.04 1017 10 16.0934 0 0
8:55 am 08:55 Cloudy 69 20.3 63 17.2 82 82 NNW 9 15 30.04 1017 10 16.0934 0 0
9:15 am 09:15 Cloudy 70 20.9 63 17.3 80 80 NNW 9 15 30.04 1017 10 16.0934 0 0
9:35 am 09:35 Cloudy 71 21.4 63 17.1 77 77 NNW 10 17 30.04 1017 10 16.0934 0 0
9:55 am 09:55 Mostly Cloudy 73 22.5 62 16.9 71 71 N 9 15 30.03 1017 10 16.0934 0 0
10:15 am 10:15 Mostly Cloudy 74 23.4 62 16.5 65 65 NNW 8 13 30.02 1017 10 16.0934 0 0
10:35 am 10:35 Mostly Cloudy 75 24 62 16.6 63 63 NNW 8 13 30.02 1017 10 16.0934 0 0
10:55 am 10:55 Mostly Cloudy 77 24.8 62 16.6 60 60 NNW 8 13 30.01 1016 10 16.0934 0 0
11:15 am 11:15 Partly Cloudy 78 25.6 63 17.3 60 60 N 8 13 30 1016 10 16.0934 0 0
11:35 am 11:35 Partly Cloudy 79 26.1 63 17.4 59 59 NW 8 13 30.01 1016 10 16.0934 0 0
11:55 am 11:55 Partly Cloudy 80 26.8 64 17.9 58 58 N 7 11 30 1016 10 16.0934 0 0
12:15 pm 12:15 Sunny 81 27.1 64 18 58 58 NW 9 15 29.99 1016 10 16.0934 0 0
12:35 pm 12:35 Partly Cloudy 82 27.8 65 18.3 56 56 NNE 8 13 29.99 1015 10 16.0934 0 0
12:55 pm 12:55 Partly Cloudy 82 27.9 65 18.2 56 56 NNE 8 13 29.99 1015 10 16.0934 0 0
1:15 pm 13:15 Mostly Cloudy 84 28.9 66 18.8 54 54 N 8 13 29.97 1015 10 16.0934 0 0
1:35 pm 13:35 Partly Cloudy 85 29.4 65 18.5 52 52 NNE 13 20 29.96 1015 10 16.0934 0 0
1:55 pm 13:55 Partly Cloudy 85 29.4 64 17.9 50 50 N 5 7 29.96 1015 10 16.0934 0 0
2:15 pm 14:15 Partly Cloudy 85 29.5 66 19.1 54 54 N 10 17 29.96 1015 10 16.0934 0 0
2:35 pm 14:35 Partly Cloudy 85 29.5 66 18.8 53 53 NNE 12 19 29.95 1014 10 16.0934 0 0
2:55 pm 14:55 Partly Cloudy 86 30.1 65 18.6 50 50 NNE 12 19 29.95 1014 10 16.0934 0 0
3:15 pm 15:15 Partly Cloudy 86 30.1 66 18.7 50 50 NNE 10 17 29.95 1014 10 16.0934 0 0
3:35 pm 15:35 Partly Cloudy 86 30.1 64 18 48 48 N 9 15 29.94 1014 10 16.0934 0 0
3:55 pm 15:55 Sunny 86 30.1 64 17.6 47 47 N 9 15 29.94 1014 10 16.0934 0 0
4:15 pm 16:15 Sunny 85 29.3 64 17.7 50 50 NNE 9 15 29.93 1014 10 16.0934 0 0
4:35 pm 16:35 Sunny 86 29.9 64 17.5 47 47 N 10 17 29.92 1013 10 16.0934 0 0
4:55 pm 16:55 Sunny 86 30.2 64 17.8 47 47 NNE 8 13 29.92 1013 10 16.0934 0 0
5:15 pm 17:15 Sunny 86 30 64 17.5 47 47 NNE 8 13 29.92 1013 10 16.0934 0 0
5:35 pm 17:35 Sunny 86 30 62 16.9 45 45 NNE 7 11 29.92 1013 10 16.0934 0 0
5:55 pm 17:55 Sunny 86 30 63 17.3 46 46 NE 7 11 29.91 1013 10 16.0934 0 0
6:15 pm 18:15 Sunny 85 29.6 61 16 44 44 NNE 9 15 29.91 1013 10 16.0934 0 0
6:35 pm 18:35 Sunny 85 29.4 61 16.1 45 45 NNE 9 15 29.91 1013 10 16.0934 0 0
6:55 pm 18:55 Sunny 83 28.1 62 16.8 50 50 NE 6 9 29.92 1013 10 16.0934 0 0
7:15 pm 19:15 Sunny 82 28 61 16.2 49 49 NE 5 7 29.92 1013 10 16.0934 0 0
7:35 pm 19:35 Sunny 82 27.7 64 17.7 55 55 NE 6 9 29.93 1013 10 16.0934 0 0
7:55 pm 19:55 Sunny 81 27.1 62 16.6 53 53 NE 5 7 29.94 1014 10 16.0934 0 0
8:15 pm 20:15 Sunny 78 25.5 63 17.1 60 60 NE 5 7 29.95 1014 10 16.0934 0 0
8:35 pm 20:35 Sunny 75 24 63 17.4 67 67 NE 6 9 29.97 1015 10 16.0934 0 0
8:55 pm 20:55 Sunny 73 22.6 62 16.8 70 70 NE 7 11 29.98 1015 10 16.0934 0 0
9:15 pm 21:15 Clear 71 21.9 63 17 74 74 NE 5 7 29.99 1015 10 16.0934 0 0
9:35 pm 21:35 Clear 69 20.7 62 16.4 77 77 NE 7 11 29.99 1015 10 16.0934 0 0
9:55 pm 21:55 Clear 69 20.4 61 16.1 76 76 NE 5 7 30 1016 10 16.0934 0 0
10:15 pm 22:15 Clear 67 19.2 62 16.6 85 85 NE 3 6 30.01 1016 10 16.0934 0 0
10:35 pm 22:35 Clear 67 19.4 61 16.3 82 82 ENE 5 7 30 1016 10 16.0934 0 0
10:55 pm 22:55 Clear 65 18.4 61 16.3 88 88 NE 6 9 30.01 1016 10 16.0934 0 0
11:15 pm 23:15 Clear 65 18.1 61 16 88 88 NE 6 9 30.01 1016 10 16.0934 0 0
11:35 pm 23:35 Clear 65 18.2 61 16 87 87 E 3 6 30.01 1016 10 16.0934 0 0
11:55 pm 23:55 Clear 65 18.5 60 15.8 84 84 ENE 5 7 29.99 1016 10 16.0934 0 0

Powered by AerisWeather